N2DJ Weather Reports


time (UTC)temp
C
wind
direction
speed
KPH
gust
KPH
rain 1hr
cm
rain 24hr
cm
rain mn
cm
humidity
%
barometer
mb
20260903230051 23 151 0.0 3.2 0.00 2.36 0.18 97 1012.8
20260903224600 23 147 0.0 3.2 0.00 2.49 0.18 96 1012.8
20260903223050 24 147 0.0 1.6 0.00 2.49 0.18 96 1012.8
20260903221550 24 147 0.0 1.6 0.00 2.49 0.18 96 1012.8
20260903220105 24 132 0.0 1.6 0.10 2.49 0.18 96 1012.5
20260903214548 24 132 0.0 1.6 0.18 2.49 0.18 95 1012.4
20260903213047 24 132 0.0 1.6 0.18 2.49 0.18 94 1012.4
20260903211613 24 132 0.0 0.0 0.18 2.49 0.18 92 1012.3
20260903210045 25 132 0.0 1.6 0.05 2.36 0.05 89 1012.6
20260903204544 26 174 1.6 4.8 0.00 2.31 0.00 86 1012.6
20260903203044 26 139 1.6 9.7 0.00 2.31 0.00 85 1012.5
20260903201543 27 122 0.0 8.0 0.00 2.31 0.00 86 1012.8
20260903200043 26 197 1.6 9.7 0.00 2.31 0.00 85 1013.0
20260903194546 26 298 0.0 3.2 0.00 2.31 0.00 86 1013.1
20260903193042 26 222 1.6 9.7 0.00 2.31 0.00 85 1013.0
20260903191541 26 230 0.0 19.3 0.00 2.31 0.00 85 1012.9
20260903190040 26 232 3.2 14.5 0.00 2.31 0.00 84 1013.2
20260903184540 27 162 1.6 12.9 0.00 2.31 0.00 84 1013.3
20260903183039 27 254 1.6 11.3 0.00 2.31 0.00 84 1013.3
20260903181538 27 217 1.6 12.9 0.00 2.31 0.00 84 1013.4
20260903180037 26 271 4.8 17.7 0.00 2.31 0.00 84 1013.4
20260903174553 26 188 4.8 9.7 0.00 2.31 0.00 85 1013.6
20260903173036 26 179 1.6 12.9 0.00 2.31 0.00 87 1013.6
20260903171534 26 153 3.2 14.5 0.00 2.31 0.00 85 1013.7
20260903170036 26 182 1.6 12.9 0.00 2.31 0.00 87 1013.7
20260903164530 26 191 1.6 8.0 0.00 2.31 0.00 87 1013.6
20260903163030 26 130 3.2 14.5 0.00 2.31 0.00 85 1013.8
20260903161528 26 279 3.2 12.9 0.00 2.31 0.00 86 1013.9
20260903160024 25 188 1.6 8.0 0.00 2.31 0.00 87 1014.0
20260903154523 25 205 1.6 8.0 0.00 2.31 0.00 87 1014.2
20260903153021 25 236 1.6 8.0 0.00 2.31 0.00 89 1014.2
20260903151520 25 198 3.2 14.5 0.00 2.31 0.00 87 1014.4
20260903150024 24 340 0.0 11.3 0.00 2.31 0.00 91 1014.4
20260903144516 24 269 0.0 6.4 0.00 2.31 0.00 91 1014.6
20260903143014 23 205 1.6 6.4 0.00 2.31 0.00 93 1014.6
20260903141516 23 248 0.0 6.4 0.00 2.31 0.00 92 1014.5
20260903140112 24 188 0.0 4.8 0.00 2.31 0.00 93 1014.4
20260903134508 23 256 1.6 8.0 0.00 2.31 0.00 96 1014.4
20260903133005 22 313 1.6 6.4 0.00 2.31 0.00 98 1014.5
20260903131602 22 233 1.6 6.4 0.00 2.31 0.00 99 1014.6
20260903130112 21 246 0.0 8.0 0.00 2.31 0.00 99 1014.6
20260903124553 21 245 0.0 6.4 0.00 4.14 0.00 99 1014.9
20260903123049 21 240 0.0 3.2 0.00 4.14 0.00 99 1015.0
20260903121548 20 240 0.0 8.0 0.00 4.14 0.00 99 1014.8
20260903120045 20 240 0.0 4.8 0.00 4.14 0.00 99 1014.8
20260903114542 20 261 1.6 6.4 0.00 4.27 0.00 99 1014.6
20260903113040 20 250 0.0 3.2 0.00 4.27 0.00 99 1014.3
20260903111613 20 272 0.0 4.8 0.00 4.27 0.00 99 1014.2
20260903110040 20 274 0.0 1.6 0.00 4.27 0.00 99 1014.1
20260903104542 20 274 0.0 1.6 0.00 4.27 0.00 99 1013.7
20260903103033 20 274 0.0 1.6 0.00 4.27 0.00 99 1013.5
20260903101539 20 274 0.0 3.2 0.00 4.27 0.00 99 1013.6
20260903100032 20 272 0.0 3.2 0.00 4.27 0.00 99 1013.4
20260903094529 20 282 0.0 3.2 0.00 4.27 0.00 98 1013.3
20260903093037 20 204 0.0 0.0 0.00 4.27 0.00 98 1013.2
20260903091532 20 206 0.0 4.8 0.00 4.27 0.00 98 1013.1
20260903090028 20 205 1.6 4.8 0.00 4.27 0.00 98 1013.0
20260903084533 20 206 0.0 3.2 0.00 4.27 0.00 98 1012.9
20260903083027 20 206 0.0 0.0 0.00 4.27 0.00 98 1013.1
20260903081527 20 206 0.0 3.2 0.00 4.27 0.00 97 1013.0
20260903080026 20 206 0.0 3.2 0.00 4.27 0.00 97 1012.9
20260903074525 20 205 0.0 4.8 0.00 4.27 0.00 97 1013.0
20260903073036 21 207 0.0 4.8 0.00 4.27 0.00 97 1012.9
20260903071525 21 242 0.0 3.2 0.00 4.27 0.00 97 1012.8
20260903070034 21 154 0.0 11.3 0.00 4.27 0.00 98 1012.8
20260903064519 21 194 1.6 14.5 0.00 4.27 0.00 97 1013.2
20260903063019 21 227 1.6 9.7 0.00 4.27 0.00 98 1013.3
20260903061533 20 347 1.6 8.0 0.00 4.27 0.00 98 1013.2
20260903060017 20 265 1.6 6.4 0.00 4.27 0.00 98 1013.1
20260903054517 20 265 3.2 12.9 0.00 4.27 0.00 98 1012.8
20260903053015 21 275 3.2 14.5 0.00 4.27 0.00 99 1013.1
20260903051515 21 178 4.8 16.1 0.00 4.27 0.00 99 1012.9
20260903050014 20 177 3.2 14.5 0.00 4.27 0.00 99 1013.0
20260903044511 20 156 1.6 14.5 0.00 4.27 0.00 99 1013.0
20260903043009 20 182 0.0 4.8 0.00 4.27 0.00 99 1012.7
20260903041509 20 186 0.0 4.8 0.00 4.27 0.00 99 1012.5
20260903040008 20 174 0.0 3.2 0.00 4.27 4.27 99 1012.2
20260903034509 20 173 0.0 6.4 0.00 4.27 4.27 99 1012.2
20260903033005 20 207 0.0 4.8 0.00 4.27 4.27 99 1012.4
20260903031504 20 196 3.2 11.3 0.00 4.27 4.27 99 1012.7
20260903030004 20 204 1.6 9.7 0.00 4.27 4.27 99 1013.2
20260903024503 20 180 0.0 8.0 0.00 4.27 4.27 99 1013.0
20260903023003 20 163 0.0 11.3 0.03 4.27 4.27 99 1013.9
20260903021502 20 175 3.2 14.5 0.58 4.27 4.27 99 1013.7
20260903020003 20 173 3.2 9.7 0.61 4.27 4.27 99 1013.9
20260903014500 20 121 1.6 9.7 0.64 4.27 4.27 98 1013.7
20260903013001 20 91 3.2 9.7 0.61 4.24 4.24 98 1013.8
20260903011609 20 212 1.6 9.7 0.08 3.68 3.68 98 1013.4
20260903010117 20 190 1.6 12.9 0.10 3.66 3.66 98 1012.9
20260903004600 20 147 1.6 11.3 0.23 3.63 3.63 98 1012.5
20260903003104 20 48 0.0 0.0 0.36 3.63 3.63 97 1012.1
20260903001600 20 351 0.0 6.4 0.41 3.61 3.61 97 1012.1
20260903000058 20 328 6.4 16.1 1.42 3.56 3.56 97 1011.9
20260902234557 21 331 8.0 17.7 1.42 3.40 3.40 96 1012.7
20260902233057 21 341 9.7 22.5 1.32 3.28 3.28 95 1013.7
20260902231609 22 312 6.4 20.9 1.24 3.20 3.20 95 1013.5